星链-2572 (STARLINK-2572 )

导读

STARLINK-2572是美国太空探索技术公司星链星座的成员,于2021年5月4日发射升空。它属于Starlink Group第2批次组网卫星,承担低轨互联网卫星通信任务,为全球提供高速宽带服务,目前已进入近地轨道正常运行,助力星链全球卫星互联网组网推进。

Basic Information
目录编号:
48372
目录名称:
STARLINK-2572
国际标识:
2021-038V
轨道中心:
EARTH
卫星名称:
星链-2572
卫星全名:
星链-2572 (STARLINK-2572 )
卫星状态:
已陨落 最后检测时间 2024-08-29
发射日期:
2021-05-04 UTC
国别 :
美国 (US)
星等 :
--
Orbit Information
数据来源 国际轨道数据
星历时间: 2024-08-29T21:29:19+0800
轨道信息已过期653天
半长轴: 6549.83km
偏心率: 0.0003527
轨道倾角: 53.031°
近地点辐角 7.341°
升交点赤经 254.438°
平近点角 79.575°
近地点: 169.384km
远地点: 174.006km
周期: 87.923分钟
每日圈数: 16.377883
Detailed Information
固有亮度:
5
最大亮度:
2.5
卫星平台:
Starlink V1.0
覆盖范围:
全球
运营商:
太空探索技术公司
运营商所在国:
美国
制造商(研发单位):
太空探索技术公司
制造商所在国:
美国
使用方式:
暂无
Satellite Introduction
星链(Starlink)计划是由太空探索技术公司(SpaceX)提出的一个巨型低轨卫星互联网星座项目,计划在2019年至2024年间在太空搭建由约1.2万颗卫星组成的“星链”网络,其中1584颗将部署在地球上空550千米处的近地轨道,并从2020年开始工作。该卫星仍在工作。